This demonstration page uses our WeatherBlox Daily Observations layout. Learn more.

Left ArrowRight Arrow

39.92423, -83.80882

Hourly Observations for June 14, 2018

Temp ( °F °C ) Dew Point ( °F °C ) Humidity (%) Winds ( mph kmh ) Pressure ( in mb ) Visibility ( mi km ) Precip ( " mm )
12:56 am 00:56 Clear 62 16.7 58 14.4 86 86 WSW 3 6 30.02 1017 10 16 N/A
1:56 am 01:56 Clear 59 15 56 13.3 90 90 NW 6 9 30.02 1017 10 16 N/A
2:56 am 02:56 Clear 59 15 55 12.8 87 87 NW 5 7 30.02 1017 10 16 N/A
3:56 am 03:56 Clear 57 13.9 55 12.8 93 93 W 3 6 30.02 1017 10 16 N/A
4:56 am 04:56 Clear 56 13.3 55 12.8 97 97 NW 3 6 30.04 1017 10 16 N/A
5:56 am 05:56 Clear 56 13.3 54 12.2 93 93 N N/A 30.03 1017 10 16 N/A
6:56 am 06:56 Sunny 57 13.9 53 11.7 87 87 N N/A 30.05 1018 10 16 N/A
7:56 am 07:56 Sunny 62 16.7 56 13.3 80 80 NNE 5 7 30.07 1018 10 16 N/A
8:56 am 08:56 Sunny 67 19.4 56 13.3 68 68 NE 5 7 30.08 1019 10 16 N/A
9:56 am 09:56 Sunny 72 22.2 58 14.4 61 61 ENE 7 11 30.08 1019 10 16 N/A
10:56 am 10:56 Sunny 74 23.3 56 13.3 54 54 E 7 11 30.07 1018 10 16 N/A
11:56 am 11:56 Sunny 76 24.4 52 11.1 43 43 N N/A 30.09 1019 10 16 N/A
12:56 pm 12:56 Sunny 77 25 52 11.1 42 42 NE 6 9 30.08 1019 9 14 N/A
1:56 pm 13:56 Sunny 78 25.6 52 11.1 40 40 NNW 3 6 30.08 1019 10 16 N/A
2:56 pm 14:56 Sunny 79 26.1 55 12.8 44 44 VRB 5 7 30.06 1018 10 16 N/A
3:56 pm 15:56 Sunny 79 26.1 54 12.2 42 42 N N/A 30.06 1018 10 16 N/A
4:56 pm 16:56 Sunny 81 27.2 52 11.1 37 37 undefined N/A 30.05 1018 10 16 N/A
5:56 pm 17:56 Sunny 81 27.2 50 10 34 34 NNW 7 11 30.05 1018 10 16 N/A
6:56 pm 18:56 Sunny 78 25.6 55 12.8 45 45 N 5 7 30.03 1017 10 16 N/A
7:56 pm 19:56 Sunny 75 23.9 54 12.2 48 48 N 5 7 30.02 1017 10 16 N/A
8:56 pm 20:56 Sunny 72 22.2 58 14.4 61 61 N N/A 30.01 1016 10 16 N/A
9:56 pm 21:56 Clear 67 19.4 61 16.1 81 81 N N/A 30.02 1017 10 16 N/A
10:56 pm 22:56 Clear 65 18.3 60 15.6 84 84 N N/A 30.05 1018 10 16 N/A
11:56 pm 23:56 Clear 64 17.8 59 15 84 84 N N/A 30.04 1017 10 16 N/A

Powered by AerisWeather